When you browse on this site, cookies collect data to enhance your experience and personalize the content and advertising you see.
Visit our Privacy Policy to learn more. By continuing to use the site, you agree to this use of cookies and data.
  • In Lithuania
  • List of Countries
  • For 7 days
  • Water Temperature
  • Weather Map
  • Weather Widgets
  • user-avatar
    Login

    Hourly Weather Newport

    Today, 24 February, Monday

    Time Temperature Precipitation Wind Pressure Humidity
    00:00 +8°C° 0 mm 2 mps 764 mmHg 82%
    01:00 +7°C° 0.2 mm 4 mps 762 mmHg 86%
    02:00 +7°C° 0.2 mm 6 mps 761 mmHg 90%
    03:00 +7°C° 0.2 mm 8 mps 760 mmHg 94%
    04:00 +7°C° 0.1 mm 9 mps 759 mmHg 93%
    05:00 +8°C° 0.1 mm 10 mps 758 mmHg 92%
    06:00 +8°C° 0.1 mm 11 mps 758 mmHg 91%
    07:00 +8°C° 0 mm 12 mps 757 mmHg 90%
    08:00 +8°C° 0 mm 13 mps 756 mmHg 89%
    09:00 +8°C° 0 mm 13 mps 756 mmHg 88%
    10:00 +8°C° 0.1 mm 14 mps 755 mmHg 88%
    11:00 +9°C° 0.1 mm 14 mps 755 mmHg 87%
    12:00 +9°C° 0.1 mm 15 mps 754 mmHg 87%
    13:00 +9°C° 0.7 mm 14 mps 753 mmHg 88%
    14:00 +9°C° 0.7 mm 14 mps 753 mmHg 89%
    15:00 +9°C° 0.7 mm 14 mps 752 mmHg 91%
    16:00 +9°C° 0.1 mm 12 mps 752 mmHg 88%
    17:00 +8°C° 0.1 mm 11 mps 752 mmHg 86%
    18:00 +8°C° 0.1 mm 10 mps 752 mmHg 84%
    19:00 +7°C° 0 mm 10 mps 752 mmHg 83%
    20:00 +6°C° 0 mm 9 mps 752 mmHg 83%
    21:00 +6°C° 0 mm 9 mps 752 mmHg 82%
    22:00 +5°C° 0 mm 8 mps 752 mmHg 80%
    23:00 +5°C° 0 mm 8 mps 752 mmHg 77%

    Tomorrow, 25 February, Tuesday

    Time Temperature Precipitation Wind Pressure Humidity
    00:00 +5°C° 0 mm 8 mps 753 mmHg 75%
    01:00 +5°C° 0 mm 8 mps 752 mmHg 76%
    02:00 +4°C° 0 mm 8 mps 752 mmHg 77%
    03:00 +4°C° 0 mm 8 mps 751 mmHg 77%
    04:00 +2°C° 0 mm 8 mps 751 mmHg 79%
    05:00 +2°C° 0 mm 8 mps 751 mmHg 80%
    06:00 +1°C° 0 mm 8 mps 751 mmHg 81%
    07:00 +2°C° 0.1 mm 9 mps 751 mmHg 81%
    08:00 +2°C° 0.1 mm 9 mps 750 mmHg 81%
    09:00 +3°C° 0.1 mm 9 mps 750 mmHg 81%
    10:00 +3°C° 0.1 mm 9 mps 749 mmHg 79%
    11:00 +5°C° 0.1 mm 9 mps 749 mmHg 78%
    12:00 +5°C° 0.1 mm 9 mps 749 mmHg 76%
    13:00 +5°C° 0.3 mm 9 mps 748 mmHg 75%
    14:00 +5°C° 0.3 mm 10 mps 747 mmHg 73%
    15:00 +4°C° 0.3 mm 11 mps 746 mmHg 72%
    16:00 +3°C° 0.4 mm 11 mps 745 mmHg 73%
    17:00 +2°C° 0.4 mm 12 mps 745 mmHg 73%
    18:00 0°C° 0.4 mm 12 mps 745 mmHg 74%
    19:00 0°C° 0.1 mm 12 mps 745 mmHg 75%
    20:00 -1°C° 0.1 mm 12 mps 745 mmHg 75%
    21:00 -1°C° 0.1 mm 12 mps 745 mmHg 75%
    22:00 -1°C° 0.1 mm 12 mps 745 mmHg 75%
    23:00 -2°C° 0.1 mm 11 mps 745 mmHg 74%

    Day after tomorrow, 26 February, Wednesday

    Time Temperature Precipitation Wind Pressure Humidity
    00:00 -2°C° 0.1 mm 11 mps 746 mmHg 74%
    01:00 -2°C° 0 mm 11 mps 746 mmHg 75%
    02:00 -2°C° 0 mm 11 mps 746 mmHg 77%
    03:00 -2°C° 0 mm 11 mps 746 mmHg 79%
    04:00 -2°C° 0 mm 11 mps 747 mmHg 79%
    05:00 -2°C° 0 mm 11 mps 747 mmHg 79%
    06:00 -2°C° 0 mm 11 mps 748 mmHg 79%
    07:00 -1°C° 0 mm 11 mps 749 mmHg 76%
    08:00 0°C° 0 mm 12 mps 750 mmHg 74%
    09:00 0°C° 0 mm 12 mps 751 mmHg 72%
    10:00 +2°C° 0 mm 12 mps 752 mmHg 67%
    11:00 +3°C° 0 mm 11 mps 753 mmHg 62%
    12:00 +3°C° 0 mm 11 mps 754 mmHg 57%
    13:00 +3°C° 0 mm 10 mps 754 mmHg 57%
    14:00 +3°C° 0 mm 10 mps 754 mmHg 57%
    15:00 +3°C° 0 mm 10 mps 755 mmHg 58%
    16:00 +2°C° 0 mm 9 mps 755 mmHg 63%
    17:00 +2°C° 0 mm 8 mps 755 mmHg 68%
    18:00 +2°C° 0 mm 7 mps 755 mmHg 73%
    19:00 +2°C° 0 mm 7 mps 755 mmHg 74%
    20:00 +2°C° 0 mm 6 mps 755 mmHg 75%
    21:00 +2°C° 0 mm 6 mps 755 mmHg 77%
    22:00 +2°C° 0 mm 6 mps 754 mmHg 76%
    23:00 +2°C° 0 mm 5 mps 754 mmHg 76%

    27 February, Thursday

    Time Temperature Precipitation Wind Pressure Humidity
    00:00 +2°C° 0 mm 5 mps 754 mmHg 75%
    01:00 +2°C° 0.2 mm 5 mps 752 mmHg 80%
    02:00 +2°C° 0.2 mm 5 mps 751 mmHg 85%
    03:00 +3°C° 0.2 mm 6 mps 750 mmHg 89%
    04:00 +3°C° 2.1 mm 7 mps 748 mmHg 91%
    05:00 +2°C° 2.1 mm 9 mps 746 mmHg 93%
    06:00 +2°C° 2.1 mm 10 mps 744 mmHg 95%
    07:00 +3°C° 1.9 mm 10 mps 743 mmHg 95%
    08:00 +5°C° 1.9 mm 9 mps 742 mmHg 96%
    09:00 +6°C° 1.9 mm 8 mps 741 mmHg 97%
    10:00 +7°C° 0.1 mm 9 mps 741 mmHg 92%
    11:00 +8°C° 0.1 mm 9 mps 741 mmHg 88%
    12:00 +9°C° 0.1 mm 10 mps 741 mmHg 83%
    13:00 +8°C° 0 mm 9 mps 742 mmHg 83%
    14:00 +7°C° 0 mm 9 mps 743 mmHg 83%
    15:00 +6°C° 0 mm 9 mps 744 mmHg 83%
    16:00 +5°C° 0 mm 8 mps 745 mmHg 83%
    17:00 +4°C° 0 mm 8 mps 746 mmHg 83%
    18:00 +2°C° 0 mm 8 mps 747 mmHg 84%
    19:00 +3°C° 0 mm 7 mps 748 mmHg 84%
    20:00 +2°C° 0 mm 6 mps 750 mmHg 85%
    21:00 +2°C° 0 mm 5 mps 751 mmHg 86%
    22:00 +2°C° 0 mm 5 mps 751 mmHg 87%
    23:00 +1°C° 0 mm 4 mps 752 mmHg 87%

    28 February, Friday

    Time Temperature Precipitation Wind Pressure Humidity
    00:00 +1°C° 0 mm 4 mps 752 mmHg 87%
    01:00 +2°C° 0 mm 3 mps 753 mmHg 88%
    02:00 +2°C° 0 mm 2 mps 753 mmHg 88%
    03:00 +3°C° 0 mm 1 mps 753 mmHg 89%
    04:00 +3°C° 0 mm 1 mps 752 mmHg 87%
    05:00 +3°C° 0 mm 1 mps 752 mmHg 86%
    06:00 +4°C° 0 mm 1 mps 752 mmHg 85%
    07:00 +4°C° 0 mm 2 mps 752 mmHg 83%
    08:00 +4°C° 0 mm 3 mps 751 mmHg 82%
    09:00 +5°C° 0 mm 4 mps 751 mmHg 80%
    10:00 +5°C° 0.3 mm 4 mps 750 mmHg 82%
    11:00 +5°C° 0.3 mm 3 mps 750 mmHg 84%
    12:00 +6°C° 0.3 mm 2 mps 749 mmHg 86%
    13:00 +6°C° 0.1 mm 2 mps 748 mmHg 86%
    14:00 +5°C° 0.1 mm 3 mps 748 mmHg 86%
    15:00 +7°C° 0.1 mm 3 mps 747 mmHg 86%
    16:00 +7°C° 0 mm 3 mps 747 mmHg 88%
    17:00 +6°C° 0 mm 4 mps 747 mmHg 90%
    18:00 +5°C° 0 mm 4 mps 746 mmHg 92%
    19:00 +6°C° 0 mm 5 mps 746 mmHg 92%
    20:00 +6°C° 0 mm 5 mps 746 mmHg 92%
    21:00 +5°C° 0 mm 6 mps 746 mmHg 93%
    22:00 +6°C° 0.1 mm 7 mps 745 mmHg 91%
    23:00 +6°C° 0.1 mm 8 mps 744 mmHg 90%

    29 February, Saturday

    Time Temperature Precipitation Wind Pressure Humidity
    00:00 +6°C° 0.1 mm 9 mps 742 mmHg 88%
    01:00 +6°C° 1.8 mm 10 mps 741 mmHg 89%
    02:00 +6°C° 1.8 mm 10 mps 740 mmHg 89%
    03:00 +4°C° 1.8 mm 11 mps 739 mmHg 89%
    04:00 +3°C° 0.6 mm 10 mps 739 mmHg 85%
    05:00 +2°C° 0.6 mm 9 mps 740 mmHg 80%
    06:00 0°C° 0.6 mm 8 mps 740 mmHg 76%
    07:00 +1°C° 0 mm 9 mps 740 mmHg 74%
    08:00 +1°C° 0 mm 9 mps 741 mmHg 72%
    09:00 +1°C° 0 mm 9 mps 741 mmHg 69%
    10:00 +2°C° 0 mm 9 mps 741 mmHg 66%
    11:00 +2°C° 0 mm 9 mps 741 mmHg 64%
    12:00 +3°C° 0 mm 9 mps 741 mmHg 61%
    13:00 +3°C° 0.1 mm 9 mps 741 mmHg 62%
    14:00 +3°C° 0.1 mm 10 mps 741 mmHg 64%
    15:00 +3°C° 0.1 mm 10 mps 741 mmHg 65%
    16:00 +2°C° 0.1 mm 10 mps 741 mmHg 67%
    17:00 +1°C° 0.1 mm 9 mps 741 mmHg 69%
    18:00 0°C° 0.1 mm 9 mps 742 mmHg 71%
    19:00 0°C° 0.1 mm 9 mps 742 mmHg 71%
    20:00 0°C° 0.1 mm 8 mps 742 mmHg 72%
    21:00 0°C° 0.1 mm 8 mps 743 mmHg 72%
    22:00 0°C° 0.1 mm 9 mps 744 mmHg 73%
    23:00 0°C° 0.1 mm 9 mps 744 mmHg 74%
    Show more